Regional Weather Roundup
Issued by NWS

Home | Current Version | Previous Version | Text Only | Print | Product List | Glossary On
Versions: 1 2 3 4 5 6 7 8 9 10 11 12 13 14 15 16 17 18 19 20 21 22 23 24 25 26 27 28 29 30 31 32 33 34 35 36 37 38 39 40 41 42 43 44 45 46 47 48 49 50
000
ASUS43 KDTX 260101
RWRMI
MICHIGAN HOURLY REGIONAL WEATHER ROUNDUP
NATIONAL WEATHER SERVICE DETROIT/PONTIAC MI
900 PM EDT SAT OCT 25 2014

NOTE: "FAIR" INDICATES FEW OR NO CLOUDS BELOW 12,000 FEET WITH NO
SIGNIFICANT WEATHER AND/OR OBSTRUCTION TO VISIBILITY.

MIZ047>049-052>055-059>063-066>070-074>076-081>083-260200-
SOUTHEAST LOWER MICHIGAN

CITY           SKY/WX    TMP DP  RH WIND       PRES   REMARKS
ADRIAN         CLEAR     56  31  38 W6        29.84R
ALMA           CLEAR     53  32  44 W8        29.81S
ANN ARBOR      CLEAR     58  29  33 NW14      29.81R
BAD AXE        CLEAR     52  37  56 W10       29.73S
CARO           CLEAR     50  34  54 W6        29.75S
DETROIT CITY   CLEAR     61  32  33 W9G21     29.78R
DETROIT        CLEAR     58  32  37 W13G20    29.80R
FLINT          CLEAR     52  34  50 W8        29.79S
GROSSE ILE     CLEAR     59  28  31 W10G18    29.79R
HILLSDALE      CLEAR     56  33  42 NW8       29.85R
HOWELL         CLEAR     54  32  42 W10G16    29.80S

CITY           SKY/WX    TMP DP  RH WIND       PRES   REMARKS
JACKSON        CLEAR     53  31  42 W7        29.83R
LAMBERTVILLE   CLEAR     55  32  41 CALM      29.83S
LANSING        CLEAR     53  34  48 W10       29.83S
LAPEER         FAIR      56  30  37 W8G18     29.77S
MASON          CLEAR     53  34  48 W6        29.82S
MONROE         CLEAR     55  34  44 W6        29.80R
MT. CLEMENS    CLEAR     59  31  35 W14G22    29.74R
PONTIAC        CLEAR     55  31  39 W13       29.78R
PORT HOPE        N/A     55  34  45 W8G17     29.71R
PORT HURON     CLEAR     57  34  41 W9G16     29.74R
TRI CITIES     CLEAR     52  33  48 W9        29.78R
TROY           CLEAR     60  29  31 W12G18    29.80R
SAGINAW HB     CLEAR     54  32  43 W9        29.77R
$$
MIZ043>046-050>051-056>058-064>065-071>073-077>080-260200-
SOUTHWEST LOWER MICHIGAN

CITY           SKY/WX    TMP DP  RH WIND       PRES   REMARKS
BATTLE CREEK   CLEAR     57  32  38 NW12      29.86R
BENTON HARBOR  CLEAR     59  41  51 W12G18    29.90R
BIG RAPIDS     CLEAR     53  39  58 W8        29.80S
COLDWATER      CLEAR     56  35  44 W7        29.86R
FREMONT        FAIR      56  26  31 NW18      29.83R
HOLLAND        CLEAR     61  39  44 W14G22    29.87R
GRAND RAPIDS   CLEAR     56  36  47 W13       29.84R
IONIA          FAIR      56  33  41 W10       29.82S
KALAMAZOO      CLEAR     57  34  41 NW12      29.87R
LUDINGTON      CLEAR     55  42  63 W10G16    29.85R
MARSHALL       CLEAR     54  32  43 W8        29.84S
MOUNT PLEASANT CLEAR     53  33  46 W7        29.78S
MUSKEGON       CLEAR     58  40  51 NW13      29.86R
SOUTH HAVEN    CLEAR     59  43  55 NW9       29.89R
$$
MIZ016>042-260200-
NORTHERN LOWER MICHIGAN

CITY           SKY/WX    TMP DP  RH WIND       PRES   REMARKS
ALPENA         CLEAR     51  31  46 NW12G18   29.72R
BEAVER ISLAND  CLEAR     53  35  50 W8G18     29.77S
BELLAIRE       CLEAR     53  37  54 NW5       29.78R
CADILLAC       CLEAR     51  32  48 W7        29.79R
CHARLEVOIX     CLEAR     54  40  59 NW13G18   29.80R
FRANKFORT      CLEAR     56  35  45 NW10      29.82R
GAYLORD        CLEAR     49  36  61 NW5       29.75S
GRAYLING       CLEAR     49  33  54 W6        29.77R
HARBOR SPRINGS CLEAR     53  32  45 W7        29.75S
HOUGHTON LAKE  CLEAR     50  32  50 NW7       29.77R
MANISTEE       CLEAR     55  36  47 W16G22    29.83R
OSCODA         CLEAR     52  34  50 NW12      29.72R
PELLSTON       CLEAR     52  32  46 NW21G29   29.74R
TRAVERSE CITY  CLEAR     53  33  46 NW9       29.79R
$$
MIZ007>008-015-260200-
EASTERN UPPER MICHIGAN

CITY           SKY/WX    TMP DP  RH WIND       PRES   REMARKS
KINROSS        PTCLDY    52  34  50 W20G28    29.67R
MACKINAC ISLAN PTCLDY    51  33  49 W22G29    29.70S
NEWBERRY       CLOUDY    49  34  54 W22G32    29.73R
S. S. MARIE    PTCLDY    50  37  61 NW16G32   29.65R
$$
MIZ004>006-011>014-085-260200-
CENTRAL UPPER MICHIGAN

CITY           SKY/WX    TMP DP  RH WIND       PRES   REMARKS
MANISTIQUE     CLEAR     50  30  46 NW10G17   29.77S
ESCANABA       CLEAR     52  27  37 W10G17    29.80S
MENOMINEE      CLEAR     55  21  26 NW7       29.84R
SAWYER-GWINN   CLEAR     50  28  43 W16G29    29.79R
$$
MIZ001>003-009>011-084-260200-
WESTERN UPPER MICHIGAN

CITY           SKY/WX    TMP DP  RH WIND       PRES   REMARKS
IRON MOUNTAIN  CLEAR     53  23  31 NW15G23   29.84R
HOUGHTON       CLEAR     49  32  52 NW23G31   29.83R
COPPER HARBOR    N/A     51  34  52 N18G32    29.78R
IRONWOOD       CLEAR     52  27  37 W16       29.90R
$$

ABBREVIATIONS USED IN REMARKS
   TC - TEMPERATURE IN CELSIUS
  WCI - WIND CHILL INDEX
   HX - HEAT INDEX
  VSB - VISIBILITY




USA.gov is the U.S. government's official web portal to all federal, state and local government web resources and services.